EW9135 Weather Reports


time (UTC)temp
F
wind
direction
speed
knots
gust
knots
rain 1hr
in
rain 24hr
in
rain mn
in
humidity
%
barometer
mb
20260901101157 61 225 0.0 0.0 0.00 0.01 0.01 33 1019.7
20260901100652 61 166 0.0 0.0 0.00 0.01 0.01 33 1019.7
20260901100146 61 278 0.0 0.0 0.00 0.01 0.01 32 1019.7
20260901095641 61 276 0.0 0.0 0.00 0.01 0.01 33 1019.7
20260901095136 61 321 0.0 0.0 0.00 0.01 0.01 32 1019.7
20260901094630 61 151 0.0 0.9 0.00 0.01 0.01 32 1019.7
20260901094125 61 245 0.0 0.9 0.00 0.01 0.01 32 1019.7
20260901093621 61 203 0.0 0.0 0.00 0.01 0.01 33 1020.1
20260901093616 61 285 0.0 0.0 0.00 0.01 0.01 33 1020.1
20260901092609 61 210 0.0 0.0 0.00 0.01 0.01 32 1020.1
20260901092104 61 239 0.0 0.0 0.00 0.01 0.01 32 1020.1
20260901092059 61 302 0.0 0.9 0.00 0.01 0.01 32 1020.1
20260901091054 61 225 0.0 0.9 0.00 0.01 0.01 32 1020.1
20260901090547 60 186 0.0 0.0 0.00 0.01 0.01 32 1019.7
20260901090042 60 200 0.0 0.9 0.01 0.01 0.01 32 1019.7
20260901085537 60 238 0.0 0.9 0.01 0.01 0.01 32 1020.1
20260901085031 59 214 0.0 0.9 0.01 0.01 0.01 32 1020.1
20260901084527 59 233 0.0 0.0 0.01 0.01 0.01 34 1020.4
20260901084021 59 282 0.0 0.0 0.01 0.01 0.01 34 1020.1
20260901083515 59 238 0.0 0.0 0.01 0.01 0.01 35 1020.4
20260901083010 60 237 0.0 0.0 0.01 0.01 0.01 34 1020.1
20260901082505 60 198 0.0 0.0 0.01 0.01 0.01 34 1020.1
20260901082000 60 232 0.0 0.0 0.01 0.01 0.01 34 1020.4
20260901081454 60 238 0.0 0.0 0.01 0.01 0.01 34 1020.1
20260901080949 60 238 0.0 0.0 0.01 0.01 0.01 34 1020.1
20260901080444 60 227 0.0 0.0 0.01 0.01 0.01 34 1020.4
20260901075934 60 234 0.0 0.0 0.00 0.01 0.00 33 1020.1
20260901075429 60 247 0.0 0.0 0.00 0.01 0.00 33 1020.1
20260901074924 60 217 0.0 0.0 0.00 0.01 0.00 33 1020.1
20260901074419 60 242 0.0 0.0 0.00 0.01 0.00 33 1020.1
20260901073913 61 211 0.0 0.0 0.00 0.01 0.00 33 1020.1
20260901073407 61 226 0.0 0.0 0.00 0.01 0.00 33 1020.1
20260901073402 61 336 0.0 0.0 0.00 0.01 0.00 33 1020.1
20260901072356 61 240 0.0 0.0 0.00 0.01 0.00 33 1020.1
20260901071851 61 210 0.0 0.0 0.00 0.01 0.00 33 1020.4
20260901071345 61 271 0.0 0.0 0.00 0.01 0.00 32 1020.1
20260901071340 61 195 0.0 0.9 0.00 0.01 0.00 32 1020.1
20260901070334 61 224 0.0 0.9 0.00 0.01 0.00 31 1020.1
20260901065829 61 274 0.0 0.9 0.00 0.01 0.01 31 1020.1
20260901065824 61 295 0.0 0.0 0.00 0.01 0.01 31 1020.4
20260901064817 61 198 0.0 0.0 0.00 0.01 0.01 31 1020.1
20260901064312 61 232 0.0 0.0 0.00 0.01 0.01 32 1020.1
20260901063807 61 257 0.0 0.9 0.00 0.01 0.01 32 1020.1
20260901063302 61 294 0.0 0.9 0.00 0.01 0.01 32 1020.1
20260901062755 61 193 0.0 0.0 0.00 0.01 0.01 32 1020.1
20260901062249 62 234 0.0 0.9 0.00 0.01 0.01 32 1020.1
20260901061745 62 234 0.0 0.9 0.00 0.01 0.01 31 1020.1
20260901061238 61 232 0.0 0.0 0.00 0.01 0.01 31 1020.4
20260901060743 61 302 0.0 0.0 0.00 0.01 0.01 31 1020.1
20260901060728 61 233 0.0 0.0 0.00 0.01 0.01 31 1020.4
20260901055722 61 202 0.0 0.9 0.00 0.01 0.01 31 1020.1
20260901055217 61 23 0.0 0.9 0.00 0.01 0.01 31 1020.1
20260901055212 61 236 0.0 0.9 0.00 0.01 0.01 31 1020.1
20260901054206 62 237 0.0 0.9 0.00 0.01 0.01 31 1020.1
20260901053700 62 245 0.0 0.0 0.00 0.01 0.01 31 1020.4
20260901053155 62 194 0.0 0.0 0.00 0.01 0.01 31 1019.7
20260901052649 62 291 0.0 0.0 0.00 0.01 0.01 31 1020.1
20260901052144 62 267 0.0 0.0 0.00 0.01 0.01 31 1019.7
20260901051638 62 226 0.0 0.0 0.00 0.01 0.01 31 1020.1
20260901051132 62 288 0.0 0.0 0.00 0.01 0.01 32 1020.1
20260901050626 62 228 0.0 0.9 0.00 0.01 0.01 32 1020.1
20260901050121 62 268 0.0 0.9 0.00 0.01 0.01 32 1020.1
20260901045619 62 314 0.0 0.0 0.00 0.01 0.01 32 1020.1
20260901045614 62 241 0.0 0.0 0.00 0.01 0.01 32 1020.1
20260901044605 62 223 0.0 0.0 0.00 0.01 0.01 31 1020.1
20260901044100 62 240 0.0 0.0 0.00 0.01 0.01 31 1019.7
20260901043554 62 281 0.0 0.9 0.00 0.01 0.01 31 1019.7
20260901043549 62 274 0.0 0.9 0.00 0.01 0.01 31 1019.7
20260901042543 62 309 0.0 0.9 0.00 0.01 0.01 31 1020.1
20260901042038 62 253 0.0 0.9 0.00 0.01 0.01 31 1019.7
20260901041532 62 313 0.0 0.0 0.00 0.01 0.01 31 1019.7
20260901041026 62 183 0.0 0.0 0.00 0.01 0.01 31 1019.7
20260901040520 62 227 0.0 0.0 0.00 0.01 0.01 31 1019.7
20260901040015 63 156 0.0 0.0 0.00 0.01 0.01 31 1019.7
20260901040010 63 173 0.0 0.9 0.00 0.01 0.01 31 1019.7
20260901035004 63 198 0.0 0.9 0.00 0.01 0.01 30 1019.4
20260901034458 63 249 0.0 0.0 0.00 0.01 0.01 29 1019.7
20260901033953 63 299 0.0 0.0 0.00 0.01 0.01 30 1019.4
20260901033447 64 288 0.0 0.0 0.00 0.01 0.01 30 1019.4
20260901032943 64 171 0.0 0.0 0.00 0.01 0.01 29 1019.1
20260901032438 64 243 0.0 0.0 0.00 0.01 0.01 29 1019.1
20260901031931 65 320 0.0 0.0 0.00 0.01 0.01 29 1019.1
20260901031426 65 308 0.0 0.0 0.00 0.01 0.01 29 1019.1
20260901030920 65 184 0.0 0.9 0.00 0.01 0.01 32 1019.1
20260901030415 66 232 0.0 0.9 0.00 0.01 0.01 32 1018.7
20260901025910 66 255 0.0 0.0 0.00 0.01 0.01 32 1019.1
20260901025405 66 288 0.0 0.0 0.00 0.01 0.01 32 1018.7
20260901025400 66 198 0.0 0.0 0.00 0.01 0.01 31 1018.4
20260901024352 67 210 0.0 0.0 0.00 0.01 0.01 31 1018.7
20260901023849 67 231 0.0 0.0 0.00 0.01 0.01 30 1018.7
20260901023843 67 278 0.0 0.0 0.00 0.01 0.01 29 1018.7
20260901022836 67 181 0.0 0.0 0.00 0.01 0.01 29 1018.7
20260901022330 68 203 0.0 0.0 0.00 0.01 0.01 29 1018.7
20260901021826 68 277 0.0 0.0 0.00 0.01 0.01 28 1018.7
20260901021319 68 238 0.0 0.9 0.00 0.01 0.01 28 1018.4
20260901020814 68 273 0.0 0.9 0.00 0.01 0.01 28 1018.4
20260901020309 69 242 0.0 0.9 0.00 0.01 0.01 26 1018.7
20260901015804 69 229 0.0 0.9 0.00 0.01 0.01 26 1018.7
20260901015259 70 259 0.0 0.9 0.00 0.01 0.01 25 1018.7
20260901014752 70 232 0.0 0.9 0.00 0.01 0.01 25 1018.7
20260901014246 70 249 0.0 0.9 0.00 0.01 0.01 25 1018.4
20260901013740 71 132 0.0 0.9 0.00 0.01 0.01 25 1018.4
20260901013237 71 242 0.0 0.0 0.00 0.01 0.01 23 1018.7
20260901013232 71 193 0.0 0.0 0.00 0.01 0.01 22 1018.4
20260901012726 71 229 0.0 0.9 0.00 0.01 0.01 22 1018.4
20260901011718 72 283 0.0 0.9 0.00 0.01 0.01 22 1018.4
20260901011213 72 219 0.0 0.9 0.00 0.01 0.01 21 1018.4
20260901010708 72 258 0.0 1.7 0.00 0.01 0.01 21 1018.4
20260901010202 72 222 0.0 1.7 0.00 0.01 0.01 21 1018.4
20260901005657 73 225 0.0 1.7 0.00 0.01 0.01 21 1018.0
20260901005151 73 185 0.0 1.7 0.00 0.01 0.01 20 1018.0
20260901004645 73 295 0.0 0.9 0.00 0.01 0.01 20 1018.0
20260901004140 73 316 0.0 0.9 0.00 0.01 0.01 20 1018.0
20260901003634 73 293 0.0 0.0 0.00 0.01 0.01 19 1018.0
20260901003130 74 215 0.0 0.0 0.00 0.01 0.01 19 1018.0
20260901002623 74 283 0.0 0.0 0.00 0.01 0.01 19 1018.0
20260901002117 74 302 0.0 1.7 0.00 0.01 0.01 19 1018.0
20260901001613 74 226 0.0 1.7 0.00 0.01 0.01 22 1018.0
20260901001107 75 265 0.0 0.9 0.00 0.01 0.01 21 1018.0
20260901000601 75 233 0.0 0.9 0.00 0.01 0.01 18 1018.0
20260901000055 75 4 0.0 0.9 0.00 0.01 0.01 16 1018.0
20260831235550 75 283 0.0 0.9 0.00 0.01 0.01 16 1018.4
20260831235045 75 253 0.0 0.9 0.00 0.01 0.01 16 1018.4
20260831234539 76 209 0.0 1.7 0.00 0.01 0.01 14 1018.0
20260831234034 76 232 0.0 1.7 0.00 0.01 0.01 14 1018.0
20260831233528 76 262 0.0 1.7 0.00 0.01 0.01 14 1018.4
20260831233022 76 202 0.0 1.7 0.00 0.01 0.01 12 1018.0
20260831232517 77 269 0.0 0.9 0.00 0.01 0.01 14 1018.0
20260831232011 77 197 0.0 0.9 0.00 0.01 0.01 12 1018.0
20260831231507 77 291 0.0 1.7 0.00 0.01 0.01 12 1018.4
20260831231502 77 302 0.0 1.7 0.00 0.01 0.01 11 1018.0
20260831230457 77 200 0.0 0.9 0.00 0.01 0.01 12 1018.4
20260831225950 77 149 0.0 0.9 0.00 0.01 0.01 13 1018.4
20260831225445 78 294 0.0 0.9 0.00 0.01 0.01 12 1018.7
20260831225440 78 162 0.0 2.6 0.00 0.01 0.01 12 1018.4
20260831224433 78 298 0.0 2.6 0.00 0.01 0.01 13 1018.4
20260831223927 78 269 0.0 1.7 0.00 0.01 0.01 12 1018.7
20260831223922 78 188 0.0 0.9 0.00 0.01 0.01 12 1018.4
20260831222917 78 85 0.0 1.7 0.00 0.01 0.01 11 1018.7
20260831222411 78 301 0.0 1.7 0.00 0.01 0.01 11 1018.7
20260831222406 78 225 0.0 0.9 0.00 0.01 0.01 10 1018.7
20260831221400 78 173 0.0 0.9 0.00 0.01 0.01 11 1018.7
20260831220854 78 201 0.0 1.7 0.00 0.01 0.01 12 1018.7
20260831220349 78 18 0.0 1.7 0.00 0.01 0.01 12 1018.7
20260831215843 78 350 0.0 0.9 0.00 0.01 0.01 11 1019.1
20260831215838 78 184 0.0 1.7 0.00 0.01 0.01 13 1019.4
20260831214833 78 255 0.0 1.7 0.00 0.01 0.01 15 1019.1
20260831214327 78 151 0.0 3.5 0.00 0.01 0.01 12 1019.4
20260831213822 78 263 0.0 3.5 0.00 0.01 0.01 13 1019.4
20260831213315 77 195 0.0 1.7 0.00 0.01 0.01 12 1019.4
20260831212810 77 187 0.0 1.7 0.00 0.01 0.01 12 1019.1
20260831212306 77 239 0.0 0.9 0.00 0.01 0.01 11 1019.7
20260831211759 77 303 0.0 1.7 0.00 0.01 0.01 12 1019.4
20260831211255 77 246 0.0 1.7 0.00 0.01 0.01 14 1019.7
20260831210748 77 328 0.0 3.5 0.00 0.01 0.01 11 1019.7
20260831210242 76 145 0.0 3.5 0.00 0.01 0.01 13 1019.7
20260831205737 76 205 0.0 2.6 0.00 0.01 0.01 12 1019.7
20260831205232 76 287 0.0 1.7 0.00 0.01 0.01 12 1019.4
20260831204726 76 207 0.0 1.7 0.00 0.01 0.01 12 1019.7
20260831204721 76 242 0.0 1.7 0.00 0.01 0.01 13 1019.7
20260831203714 76 182 0.0 0.9 0.00 0.01 0.01 15 1019.7
20260831203210 76 242 0.0 1.7 0.00 0.01 0.01 14 1019.4
20260831202705 76 214 0.0 1.7 0.00 0.01 0.01 14 1019.7
20260831202700 75 238 0.0 0.9 0.00 0.01 0.01 14 1019.7
20260831201652 75 187 0.0 0.9 0.00 0.01 0.01 15 1019.7
20260831201148 75 198 0.0 0.9 0.00 0.01 0.01 13 1019.7
20260831200642 75 268 0.0 0.9 0.00 0.01 0.01 13 1019.7
20260831200136 75 144 0.0 0.9 0.00 0.01 0.01 14 1019.7
20260831195631 75 224 0.0 1.7 0.00 0.01 0.01 16 1019.7
20260831195126 74 153 0.0 1.7 0.00 0.01 0.01 15 1019.4
20260831194619 74 301 0.0 1.7 0.00 0.01 0.01 15 1019.7
20260831194114 74 247 0.0 1.7 0.00 0.01 0.01 13 1019.7
20260831193609 73 204 0.0 0.9 0.00 0.01 0.01 15 1020.1
20260831193102 73 201 0.0 0.0 0.00 0.01 0.01 16 1019.7
20260831192557 72 262 0.0 0.0 0.00 0.01 0.01 19 1019.7
20260831192052 72 291 0.0 0.9 0.00 0.01 0.01 18 1020.1
20260831191546 72 155 0.0 0.9 0.00 0.01 0.01 19 1019.7
20260831191541 71 224 0.0 1.7 0.00 0.01 0.01 18 1020.1
20260831190535 71 312 0.0 1.7 0.00 0.01 0.01 19 1020.1
20260831190029 70 228 0.0 1.7 0.00 0.01 0.01 19 1020.1
20260831185524 70 214 0.0 0.9 0.00 0.01 0.01 21 1020.1
20260831185018 70 254 0.0 2.6 0.00 0.01 0.01 20 1020.4
20260831184514 69 250 0.0 2.6 0.00 0.01 0.01 21 1020.1
20260831184007 69 253 0.0 3.5 0.00 0.01 0.01 22 1020.4
20260831183502 69 251 0.0 3.5 0.00 0.01 0.01 23 1020.4
20260831182959 69 250 0.0 2.6 0.00 0.01 0.01 22 1020.1
20260831182954 69 157 0.0 2.6 0.00 0.01 0.01 21 1020.4
20260831181945 68 283 0.0 1.7 0.00 0.01 0.01 23 1020.1
20260831181441 68 248 0.0 1.7 0.00 0.01 0.01 23 1020.4
20260831180934 68 214 0.0 0.9 0.00 0.01 0.01 23 1020.1
20260831180429 68 240 0.0 2.6 0.00 0.01 0.01 24 1020.1
20260831175925 68 260 0.0 2.6 0.00 0.01 0.01 24 1020.4
20260831175920 67 159 0.0 1.7 0.00 0.01 0.01 25 1020.1
20260831174912 67 230 0.0 1.7 0.00 0.01 0.01 25 1020.1
20260831174408 67 293 0.0 0.9 0.00 0.01 0.01 23 1020.1
20260831173901 67 250 0.0 0.9 0.00 0.01 0.01 24 1020.1
20260831173357 66 211 0.0 0.9 0.00 0.01 0.01 24 1020.1
20260831172850 66 311 0.0 0.9 0.00 0.01 0.01 26 1019.7
20260831172345 65 245 0.0 0.9 0.00 0.01 0.01 27 1020.1
20260831171840 65 260 0.0 2.6 0.00 0.01 0.01 27 1020.1
20260831171334 65 204 0.0 2.6 0.00 0.01 0.01 29 1019.7
20260831170828 65 206 0.0 0.9 0.00 0.01 0.01 31 1019.7
20260831170324 65 316 0.0 0.9 0.00 0.01 0.01 32 1019.7
20260831170318 65 204 0.0 0.9 0.00 0.01 0.01 32 1019.7
20260831165312 65 231 0.0 0.9 0.00 0.01 0.01 32 1019.7
20260831164806 65 229 0.0 1.7 0.00 0.01 0.01 32 1019.7
20260831164757 64 243 0.0 0.9 0.00 0.01 0.01 32 1019.7
20260831164401 65 344 0.0 1.7 0.00 0.01 0.01 32 1019.7
20260831163252 64 215 0.0 0.0 0.00 0.01 0.01 32 1019.7
20260831162744 64 341 0.0 0.0 0.00 0.01 0.01 32 1019.7
20260831162240 64 243 0.0 0.9 0.00 0.01 0.01 32 1019.4
20260831161733 63 286 0.0 0.9 0.00 0.01 0.01 32 1019.4
20260831161227 63 272 0.0 0.9 0.00 0.01 0.01 32 1019.4
20260831160722 62 248 0.0 0.9 0.00 0.01 0.01 30 1019.4
20260831160217 62 217 0.0 0.0 0.00 0.01 0.01 31 1019.4
20260831160211 62 255 0.0 0.9 0.00 0.01 0.01 31 1019.4
20260831155206 62 187 0.0 0.9 0.00 0.01 0.01 31 1019.4
20260831154700 61 233 0.0 0.9 0.00 0.01 0.01 31 1019.4
20260831154155 61 223 0.0 0.9 0.00 0.01 0.01 32 1019.4
20260831153649 61 251 0.0 0.0 0.00 0.01 0.01 32 1019.4
20260831153144 61 317 0.0 0.0 0.00 0.01 0.01 32 1019.1
20260831153135 61 210 0.0 0.0 0.00 0.01 0.01 32 1019.4
20260831152738 61 280 0.0 0.0 0.00 0.01 0.01 32 1019.1
20260831151628 61 196 0.0 0.0 0.00 0.01 0.01 32 1019.4
20260831151622 61 269 0.0 0.0 0.00 0.01 0.01 32 1019.1
20260831150616 61 278 0.0 0.0 0.00 0.01 0.01 33 1019.1
20260831150110 61 280 0.0 0.0 0.00 0.01 0.01 33 1019.4
20260831145606 61 293 0.0 0.0 0.00 0.01 0.01 33 1019.1
20260831145601 61 238 0.0 0.0 0.00 0.01 0.01 33 1019.1
20260831144554 61 155 0.0 0.9 0.00 0.01 0.01 34 1019.1
20260831144048 61 229 0.0 0.9 0.00 0.01 0.01 33 1019.1
20260831143542 61 286 0.0 0.9 0.00 0.01 0.01 33 1018.7
20260831143038 61 207 0.0 0.9 0.00 0.01 0.01 35 1019.1
20260831142532 61 210 0.0 0.9 0.00 0.01 0.01 35 1018.7
20260831142026 61 310 0.0 0.0 0.00 0.01 0.01 35 1018.7
20260831141520 61 314 0.0 0.9 0.00 0.01 0.01 35 1018.7
20260831141015 61 225 0.0 0.9 0.00 0.01 0.01 35 1018.7
20260831140510 61 189 0.0 0.0 0.00 0.01 0.01 35 1018.7
20260831140505 61 273 0.0 0.0 0.00 0.01 0.01 35 1018.4
20260831135459 61 285 0.0 0.9 0.00 0.01 0.01 35 1018.4
20260831134953 61 204 0.0 0.9 0.00 0.01 0.01 34 1018.4
20260831134448 61 205 0.0 0.0 0.00 0.01 0.01 34 1018.4
20260831133942 61 250 0.0 0.0 0.00 0.01 0.01 33 1018.0
20260831133436 61 251 0.0 0.0 0.00 0.01 0.01 33 1018.4
20260831132931 61 241 0.0 0.0 0.00 0.01 0.01 33 1018.0
20260831132425 61 203 0.0 0.0 0.00 0.01 0.01 34 1018.0
20260831131920 61 234 0.0 0.0 0.00 0.01 0.01 34 1018.0
20260831131414 61 222 0.0 0.0 0.00 0.01 0.01 34 1018.0
20260831130908 61 248 0.0 0.0 0.00 0.01 0.01 33 1018.0
20260831130406 61 245 0.0 0.9 0.00 0.01 0.01 33 1018.0
20260831130359 61 289 0.0 0.9 0.00 0.01 0.01 33 1018.0
20260831125352 61 175 0.0 0.0 0.00 0.01 0.01 33 1017.7
20260831124846 61 197 0.0 0.0 0.00 0.01 0.01 33 1018.0
20260831124841 61 198 0.0 0.0 0.00 0.01 0.01 33 1018.0
20260831123836 61 233 0.0 0.0 0.00 0.01 0.01 33 1017.7
20260831123330 61 255 0.0 0.0 0.00 0.01 0.01 33 1018.0
20260831122920 60 196 0.0 0.9 0.00 0.01 0.01 33 1018.0
20260831122824 61 218 0.0 0.0 0.00 0.01 0.01 33 1017.7
20260831122816 60 242 0.0 0.9 0.00 0.01 0.01 33 1017.7
20260831121308 59 164 0.0 0.0 0.00 0.01 0.01 33 1018.0
20260831120802 59 181 0.0 0.0 0.00 0.01 0.01 33 1017.7
20260831120258 58 210 0.0 0.0 0.00 0.01 0.01 33 1017.7
20260831120252 58 276 0.0 0.0 0.00 0.01 0.01 39 1017.7
20260831115247 58 324 0.0 0.0 0.00 0.01 0.01 41 1017.4
20260831114740 58 291 0.0 0.0 0.00 0.01 0.01 41 1017.7
20260831114234 58 214 0.0 0.0 0.00 0.01 0.01 41 1017.7
20260831113729 58 210 0.0 0.0 0.00 0.01 0.01 41 1017.7
20260831113223 58 210 0.0 0.0 0.00 0.01 0.01 41 1017.7
20260831112718 58 239 0.0 0.0 0.00 0.01 0.01 41 1017.7
20260831112213 58 189 0.0 0.0 0.00 0.01 0.01 41 1017.7
20260831111707 58 189 0.0 0.0 0.00 0.01 0.01 41 1017.4
20260831111201 58 222 0.0 0.0 0.00 0.01 0.01 41 1017.4
20260831111156 59 222 0.0 0.0 0.00 0.01 0.01 41 1017.4
20260831110151 59 227 0.0 0.0 0.00 0.01 0.01 40 1017.7
20260831105645 59 215 0.0 0.0 0.00 0.01 0.01 40 1017.4
20260831105139 60 215 0.0 0.0 0.00 0.01 0.01 40 1017.4
20260831104633 60 227 0.0 0.0 0.00 0.01 0.01 39 1017.4
20260831104128 60 227 0.0 0.0 0.00 0.01 0.01 38 1017.4
20260831103623 60 227 0.0 0.0 0.00 0.01 0.01 39 1017.4
20260831103117 60 206 0.0 0.0 0.00 0.01 0.01 39 1017.4
20260831102612 61 241 0.0 0.0 0.00 0.01 0.01 39 1017.4
20260831102109 61 241 0.0 0.0 0.00 0.01 0.01 38 1017.4
20260831102104 61 202 0.0 0.0 0.00 0.01 0.01 38 1017.4